H1 CPF 2 NER 2022 1 6 9 006 01 glonass133 H2 1403201 9133 40001 2022 1 6 0 0 0 2022 1 9 23 45 0 900 1 1 0 0 0 1 H9 10 0 59585 0.00000 0 10438099.398 -920406.249 23262700.950 10 0 59585 900.00000 0 10901442.242 1897983.813 22987180.256 10 0 59585 1800.00000 0 11563524.438 4613682.111 22265455.111 10 0 59585 2700.00000 0 12396469.832 7161273.783 21111422.824 10 0 59585 3600.00000 0 13361658.374 9482230.632 19547377.816 10 0 59585 4500.00000 0 14411359.017 11527104.589 17603589.144 10 0 59585 5400.00000 0 15490765.710 13257345.400 15317722.408 10 0 59585 6300.00000 0 16540351.673 14646667.041 12734116.215 10 0 59585 7200.00000 0 17498443.306 15681905.883 9902926.444 10 0 59585 8100.00000 0 18303905.391 16363334.877 6879154.316 10 0 59585 9000.00000 0 18898824.044 16704420.764 3721576.850 10 0 59585 9900.00000 0 19231073.460 16731034.813 491600.673 10 0 59585 10800.00000 0 19256657.110 16480150.846 -2747938.115 10 0 59585 11700.00000 0 18941723.235 15998086.170 -5934003.950 10 0 59585 12600.00000 0 18264168.249 15338360.553 -9004596.730 10 0 59585 13500.00000 0 17214759.040 14559264.789 -11899966.622 10 0 59585 14400.00000 0 15797725.670 13721242.704 -14563784.150 10 0 59585 15300.00000 0 14030798.527 12884198.376 -16944241.879 10 0 59585 16200.00000 0 11944687.606 12104843.293 -18995065.705 10 0 59585 17100.00000 0 9582025.215 11434196.260 -20676415.828 10 0 59585 18000.00000 0 6995816.108 10915342.016 -21955659.836 10 0 59585 18900.00000 0 4247459.646 10581543.288 -22808003.224 10 0 59585 19800.00000 0 1404426.326 10454785.683 -23216965.626 10 0 59585 20700.00000 0 -1462314.564 10544816.362 -23174694.141 10 0 59585 21600.00000 0 -4281009.459 10848716.377 -22682108.392 10 0 59585 22500.00000 0 -6981864.762 11351024.065 -21748875.164 10 0 59585 23400.00000 0 -9499707.358 12024403.637 -20393213.669 10 0 59585 24300.00000 0 -11776451.695 12830830.293 -18641535.630 10 0 59585 25200.00000 0 -13763271.984 13723241.538 -16527927.431 10 0 59585 26100.00000 0 -15422390.281 14647584.877 -14093484.498 10 0 59585 27000.00000 0 -16728407.435 15545175.522 -11385510.898 10 0 59585 27900.00000 0 -17669122.887 16355264.745 -8456599.561 10 0 59585 28800.00000 0 -18245810.539 17017710.679 -5363611.052 10 0 59585 29700.00000 0 -18472940.723 17475639.112 -2166570.606 10 0 59585 30600.00000 0 -18377361.311 17677982.163 1072495.187 10 0 59585 31500.00000 0 -17996973.572 17581787.943 4290759.410 10 0 59585 32400.00000 0 -17378959.477 17154203.813 7425810.299 10 0 59585 33300.00000 0 -16577635.753 16374049.626 10416857.719 10 0 59585 34200.00000 0 -15652025.457 15232914.468 13205907.308 10 0 59585 35100.00000 0 -14663249.474 13735730.329 15738879.866 10 0 59585 36000.00000 0 -13671847.634 11900797.911 17966654.718 10 0 59585 36900.00000 0 -12735141.873 9759262.585 19846017.298 10 0 59585 37800.00000 0 -11904751.895 7354061.229 21340493.194 10 0 59585 38700.00000 0 -11224367.309 4738382.505 22421053.110 10 0 59585 39600.00000 0 -10727869.415 1973703.278 23066675.490 10 0 59585 40500.00000 0 -10437881.266 -872518.698 23264756.283 10 0 59585 41400.00000 0 -10364806.787 -3729401.575 23011357.968 10 0 59585 42300.00000 0 -10506399.546 -6525340.823 22311292.797 10 0 59585 43200.00000 0 -10847879.695 -9190744.476 21178038.178 10 0 59585 44100.00000 0 -11362594.822 -11660689.635 19633485.064 10 0 59585 45000.00000 0 -12013197.765 -13877390.553 17707523.306 10 0 59585 45900.00000 0 -12753292.600 -15792376.138 15437470.990 10 0 59585 46800.00000 0 -13529480.242 -17368286.423 12867357.778 10 0 59585 47700.00000 0 -14283717.912 -18580213.034 10047075.353 10 0 59585 48600.00000 0 -14955893.126 -19416527.603 7031410.831 10 0 59585 49500.00000 0 -15486503.303 -19879163.440 3878981.585 10 0 59585 50400.00000 0 -15819327.225 -19983338.638 651092.344 10 0 59585 51300.00000 0 -15903974.468 -19756732.576 -2589462.811 10 0 59585 52200.00000 0 -15698203.832 -19238150.947 -5779629.558 10 0 59585 53100.00000 0 -15169911.404 -18475736.294 -8857328.587 10 0 59585 54000.00000 0 -14298702.855 -17524800.467 -11762671.962 10 0 59585 54900.00000 0 -13076982.210 -16445371.491 -14439135.970 10 0 59585 55800.00000 0 -11510510.031 -15299559.476 -16834666.658 10 0 59585 56700.00000 0 -9618406.473 -14148853.667 -18902696.036 10 0 59585 57600.00000 0 -7432598.286 -13051465.425 -20603048.856 10 0 59585 58500.00000 0 -4996732.400 -12059829.648 -21902722.320 10 0 59585 59400.00000 0 -2364601.130 -11218370.048 -22776523.879 10 0 59585 60300.00000 0 401855.574 -10561622.163 -23207555.273 10 0 59585 61200.00000 0 3234887.724 -10112792.582 -23187534.031 10 0 59585 62100.00000 0 6063515.744 -9882814.253 -22716946.921 10 0 59585 63000.00000 0 8816246.874 -9869936.619 -21805033.026 10 0 59585 63900.00000 0 11423815.012 -10059866.881 -20469597.329 10 0 59585 64800.00000 0 13821830.877 -10426455.459 -18736658.853 10 0 59585 65700.00000 0 15953233.156 -10932895.933 -16639940.403 10 0 59585 66600.00000 0 17770439.610 -11533388.252 -14220210.008 10 0 59585 67500.00000 0 19237109.729 -12175194.596 -11524486.814 10 0 59585 68400.00000 0 20329446.727 -12801000.878 -8605126.816 10 0 59585 69300.00000 0 21036985.756 -13351484.066 -5518806.164 10 0 59585 70200.00000 0 21362836.768 -13767976.921 -2325421.728 10 0 59585 71100.00000 0 21323373.115 -13995117.648 913069.801 10 0 59585 72000.00000 0 20947380.113 -13983372.643 4133851.658 10 0 59585 72900.00000 0 20274700.334 -13691325.851 7274462.384 10 0 59585 73800.00000 0 19354433.298 -13087638.055 10274003.357 10 0 59585 74700.00000 0 18242765.755 -12152593.327 13074315.127 10 0 59585 75600.00000 0 17000524.015 -10879167.095 15621100.073 10 0 59585 76500.00000 0 15690551.138 -9273570.255 17864970.049 10 0 59585 77400.00000 0 14375018.907 -7355245.634 19762399.146 10 0 59585 78300.00000 0 13112787.011 -5156315.747 21276563.709 10 0 59585 79200.00000 0 11956919.641 -2720503.505 22378053.970 10 0 59585 80100.00000 0 10952463.114 -101569.379 23045443.896 10 0 59585 81000.00000 0 10134577.123 2638671.616 23265708.613 10 0 59585 81900.00000 0 9527097.538 5432672.335 23034481.426 10 0 59585 82800.00000 0 9141590.820 8209720.365 22356145.209 10 0 59585 83700.00000 0 8976939.682 10898644.177 21243756.008 10 0 59585 84600.00000 0 9019477.610 13430547.366 19718799.536 10 0 59585 85500.00000 0 9243666.983 15741458.131 17810784.393 10 0 59586 0.00000 0 9613292.723 17774784.214 15556679.085 10 0 59586 900.00000 0 10083121.897 19483472.337 13000201.435 10 0 59586 1800.00000 0 10600959.166 20831779.294 10190976.463 10 0 59586 2700.00000 0 11110012.136 21796584.203 7183574.386 10 0 59586 3600.00000 0 11551466.036 22368183.918 4036450.044 10 0 59586 4500.00000 0 11867158.573 22550539.176 810803.350 10 0 59586 5400.00000 0 12002240.908 22360960.920 -2430616.522 10 0 59586 6300.00000 0 11907711.039 21829250.165 -5624739.248 10 0 59586 7200.00000 0 11542711.090 20996328.033 -8709408.868 10 0 59586 8100.00000 0 10876489.875 19912414.361 -11624601.643 10 0 59586 9000.00000 0 9889946.396 18634832.497 -14313601.604 10 0 59586 9900.00000 0 8576687.759 17225533.760 -16724109.952 10 0 59586 10800.00000 0 6943555.768 15748446.823 -18809266.161 10 0 59586 11700.00000 0 5010598.991 14266764.419 -20528560.627 10 0 59586 12600.00000 0 2810490.757 12840282.164 -21848621.013 10 0 59586 13500.00000 0 387416.822 11522901.630 -22743857.365 10 0 59586 14400.00000 0 -2204521.242 10360402.466 -23196953.957 10 0 59586 15300.00000 0 -4903320.626 9388576.671 -23199198.939 10 0 59586 16200.00000 0 -7641426.204 8631802.516 -22750646.126 10 0 59586 17100.00000 0 -10348316.433 8102116.877 -21860106.462 10 0 59586 18000.00000 0 -12953218.995 7798823.713 -20544969.885 10 0 59586 18900.00000 0 -15387843.849 7708653.802 -18830861.491 10 0 59586 19800.00000 0 -17589020.709 7806467.770 -16751138.914 10 0 59586 20700.00000 0 -19501131.876 8056471.704 -14346240.852 10 0 59586 21600.00000 0 -21078240.080 8413893.188 -11662899.356 10 0 59586 22500.00000 0 -22285823.593 8827046.418 -8753231.129 10 0 59586 23400.00000 0 -23102047.178 9239698.692 -5673725.456 10 0 59586 24300.00000 0 -23518516.883 9593638.095 -2484148.332 10 0 59586 25200.00000 0 -23540488.142 9831333.667 753615.971 10 0 59586 26100.00000 0 -23186519.464 9898575.622 3976763.369 10 0 59586 27000.00000 0 -22487587.135 9746983.994 7122785.223 10 0 59586 27900.00000 0 -21485698.813 9336279.690 10130676.921 10 0 59586 28800.00000 0 -20232064.715 8636221.963 12942116.385 10 0 59586 29700.00000 0 -18784903.463 7628130.287 15502589.960 10 0 59586 30600.00000 0 -17206974.618 6305926.053 17762444.291 10 0 59586 31500.00000 0 -15562941.226 4676649.497 19677844.181 10 0 59586 32400.00000 0 -13916672.434 2760429.137 21211618.558 10 0 59586 33300.00000 0 -12328598.538 589903.603 22333978.695 10 0 59586 34200.00000 0 -10853228.521 -1790881.489 23023095.252 10 0 59586 35100.00000 0 -9536933.198 -4328057.353 23265523.351 10 0 59586 36000.00000 0 -8416086.068 -6959932.382 23056467.545 10 0 59586 36900.00000 0 -7515639.131 -9619327.500 22399881.381 10 0 59586 37800.00000 0 -6848192.940 -12236151.003 21308399.200 10 0 59586 38700.00000 0 -6413599.652 -14740107.236 19803100.746 10 0 59586 39600.00000 0 -6199115.770 -17063427.388 17913112.264 10 0 59586 40500.00000 0 -6180098.282 -19143509.445 15675050.770 10 0 59586 41400.00000 0 -6321215.095 -20925357.625 13132321.249 10 0 59586 42300.00000 0 -6578118.965 -22363719.388 10334279.569 10 0 59586 43200.00000 0 -6899514.311 -23424830.491 7335276.691 10 0 59586 44100.00000 0 -7229529.416 -24087694.591 4193602.372 10 0 59586 45000.00000 0 -7510293.244 -24344843.268 970349.015 10 0 59586 45900.00000 0 -7684607.051 -24202544.198 -2271781.915 10 0 59586 46800.00000 0 -7698596.617 -23680448.544 -5469706.985 10 0 59586 47700.00000 0 -7504231.559 -22810692.461 -8561196.534 10 0 59586 48600.00000 0 -7061603.651 -21636490.900 -11486093.992 10 0 59586 49500.00000 0 -6340866.345 -20210283.469 -14187494.090 10 0 59586 50400.00000 0 -5323752.158 -18591511.226 -16612856.048 10 0 59586 51300.00000 0 -4004602.609 -16844118.743 -18715029.505 10 0 59586 52200.00000 0 -2390866.218 -15033887.277 -20453172.919 10 0 59586 53100.00000 0 -503042.750 -13225711.739 -21793546.489 10 0 59586 54000.00000 0 1625924.694 -11480936.064 -22710164.506 10 0 59586 54900.00000 0 3951784.887 -9854858.761 -23185294.957 10 0 59586 55800.00000 0 6420593.896 -8394512.792 -23209797.320 10 0 59586 56700.00000 0 8970743.732 -7136812.029 -22783292.707 10 0 59586 57600.00000 0 11535320.034 -6107140.798 -21914163.734 10 0 59586 58500.00000 0 14044690.910 -5318444.290 -20619384.686 10 0 59586 59400.00000 0 16429219.634 -4770856.424 -18924185.726 10 0 59586 60300.00000 0 18621988.780 -4451879.220 -16861557.888 10 0 59586 61200.00000 0 20561422.891 -4337104.671 -14471608.672 10 0 59586 62100.00000 0 22193701.068 -4391447.385 -11800780.709 10 0 59586 63000.00000 0 23474859.613 -4570834.940 -8900948.629 10 0 59586 63900.00000 0 24372497.678 -4824283.805 -5828411.654 10 0 59586 64800.00000 0 24867015.483 -5096272.536 -2642801.379 10 0 59586 65700.00000 0 24952334.117 -5329311.549 594074.098 10 0 59586 66600.00000 0 24636067.549 -5466600.646 3819427.199 10 0 59586 67500.00000 0 23939140.384 -5454661.767 6970705.866 10 0 59586 68400.00000 0 22894867.964 -5245835.662 9986803.049 10 0 59586 69300.00000 0 21547537.818 -4800536.882 12809237.268 10 0 59586 70200.00000 0 19950552.173 -4089171.747 15383281.668 10 0 59586 71100.00000 0 18164209.329 -3093638.041 17659020.062 10 0 59586 72000.00000 0 16253216.613 -1808342.762 19592309.913 10 0 59586 72900.00000 0 14284038.523 -240694.248 21145634.212 10 0 59586 73800.00000 0 12322190.278 1588953.128 22288826.323 10 0 59586 74700.00000 0 10429589.165 3647900.773 22999654.226 10 0 59586 75600.00000 0 8662073.412 5892230.735 23264253.226 10 0 59586 76500.00000 0 7067191.358 8268408.477 23077398.890 10 0 59586 77400.00000 0 5682352.541 10715298.490 22442614.770 10 0 59586 78300.00000 0 4533417.266 13166510.582 21372112.409 10 0 59586 79200.00000 0 3633783.168 15552980.630 19886564.081 10 0 59586 80100.00000 0 2984006.745 17805679.490 18014711.791 10 0 59586 81000.00000 0 2571975.530 19858338.023 15792819.067 10 0 59586 81900.00000 0 2373623.598 21650075.042 13263975.141 10 0 59586 82800.00000 0 2354160.293 23127818.362 10477264.162 10 0 59586 83700.00000 0 2469760.230 24248417.470 7486814.881 10 0 59586 84600.00000 0 2669642.998 24980358.777 4350748.873 10 0 59586 85500.00000 0 2898454.159 25305010.823 1130047.838 10 0 59587 0.00000 0 3098846.075 25217346.522 -2112637.366 10 0 59587 900.00000 0 3214148.373 24726111.463 -5314213.894 10 0 59587 1800.00000 0 3191013.505 23853431.057 -8412381.024 10 0 59587 2700.00000 0 2981924.393 22633872.894 -11346852.039 10 0 59587 3600.00000 0 2547456.282 21113003.992 -14060534.734 10 0 59587 4500.00000 0 1858195.929 19345504.174 -16500648.366 10 0 59587 5400.00000 0 896235.722 17392915.478 -18619754.408 10 0 59587 6300.00000 0 -343821.424 15321122.772 -20376680.727 10 0 59587 7200.00000 0 -1854389.632 13197671.917 -21737321.098 10 0 59587 8100.00000 0 -3614980.705 11089038.262 -22675294.807 10 0 59587 9000.00000 0 -5592835.108 9057959.931 -23172454.030 10 0 59587 9900.00000 0 -7744077.250 7160947.225 -23219229.736 10 0 59587 10800.00000 0 -10015347.209 5446071.655 -22814810.158 10 0 59587 11700.00000 0 -12345841.079 3951125.929 -21967149.026 10 0 59587 12600.00000 0 -14669675.119 2702230.586 -20692804.006 10 0 59587 13500.00000 0 -16918475.488 1712943.915 -19016608.932 10 0 59587 14400.00000 0 -19024086.021 983910.714 -16971186.467 10 0 59587 15300.00000 0 -20921281.522 503062.903 -14596310.795 10 0 59587 16200.00000 0 -22550373.892 246361.911 -11938132.756 10 0 59587 17100.00000 0 -23859602.850 179050.077 -9048282.362 10 0 59587 18000.00000 0 -24807211.851 257357.187 -5982866.107 10 0 59587 18900.00000 0 -25363123.007 430589.130 -2801378.475 10 0 59587 19800.00000 0 -25510141.474 643509.789 434451.345 10 0 59587 20700.00000 0 -25244639.395 838915.048 3661855.011 10 0 59587 21600.00000 0 -24576691.251 960289.818 6818239.755 10 0 59587 22500.00000 0 -23529655.344 954435.594 9842398.748 10 0 59587 23400.00000 0 -22139219.222 773957.433 12675693.690 10 0 59587 24300.00000 0 -20451949.172 379505.229 15263186.970 10 0 59587 25200.00000 0 -18523404.382 -258325.504 17554701.818 10 0 59587 26100.00000 0 -16415894.425 -1157513.762 19505790.332 10 0 59587 27000.00000 0 -14195973.264 -2323616.974 21078591.214 10 0 59587 27900.00000 0 -11931773.703 -3749301.492 22242561.199 10 0 59587 28800.00000 0 -9690292.724 -5414420.445 22975066.455 10 0 59587 29700.00000 0 -7534739.932 -7286637.201 23261822.950 10 0 59587 30600.00000 0 -5522058.652 -9322570.043 23097177.357 10 0 59587 31500.00000 0 -3700722.154 -11469411.935 22484222.959 10 0 59587 32400.00000 0 -2108896.026 -13666959.601 21434747.899 10 0 59587 33300.00000 0 -773042.720 -15849968.866 19969016.070 10 0 59587 34200.00000 0 292973.932 -17950739.313 18115384.025 10 0 59587 35100.00000 0 1088247.143 -19901821.400 15909760.303 10 0 59587 36000.00000 0 1624633.812 -21638733.551 13394916.608 10 0 59587 36900.00000 0 1926017.680 -23102575.729 10619663.338 10 0 59587 37800.00000 0 2027060.266 -24242429.837 7637904.780 10 0 59587 38700.00000 0 1971492.621 -25017445.772 4507591.897 10 0 59587 39600.00000 0 1810020.483 -25398524.748 1289593.131 10 0 59587 40500.00000 0 1597932.147 -25369528.306 -1953494.508 10 0 59587 41400.00000 0 1392511.251 -24927961.344 -5158570.299 10 0 59587 42300.00000 0 1250365.132 -24085099.724 -8263265.793 10 0 59587 43200.00000 0 1224783.212 -22865556.670 -11207166.879 10 0 59587 44100.00000 0 1363238.626 -21306306.043 -13932997.141 10 0 59587 45000.00000 0 1705140.124 -19455203.680 -16387738.516 10 0 59587 45900.00000 0 2279930.555 -17369069.286 -18523666.797 10 0 59587 46800.00000 0 3105613.307 -15111409.808 -20299281.515 10 0 59587 47700.00000 0 4187769.722 -12749880.254 -21680111.958 10 0 59587 48600.00000 0 5519109.567 -10353588.630 -22639383.981 10 0 59587 49500.00000 0 7079574.018 -7990357.807 -23158535.106 10 0 59587 50400.00000 0 8836987.208 -5724058.626 -23227568.543 10 0 59587 51300.00000 0 10748229.362 -3612125.033 -22845239.980 10 0 59587 52200.00000 0 12760882.733 -1703354.026 -22019074.215 10 0 59587 53100.00000 0 14815281.697 -36081.059 -20765211.883 10 0 59587 54000.00000 0 16846881.671 1363194.465 -19108089.729 10 0 59587 54900.00000 0 18788848.180 2480677.937 -17079960.899 10 0 59587 55800.00000 0 20574758.194 3315607.933 -14720264.739 10 0 59587 56700.00000 0 22141301.246 3880032.377 -12074858.349 10 0 59587 57600.00000 0 23430867.766 4198043.605 -9195124.744 10 0 59587 58500.00000 0 24393916.712 4304506.001 -6136974.920 10 0 59587 59400.00000 0 24991023.771 4243331.124 -2959763.117 10 0 59587 60300.00000 0 25194524.740 4065374.079 274863.753 10 0 59587 61200.00000 0 24989685.492 3826040.670 3504160.098 10 0 59587 62100.00000 0 24375349.816 3582706.922 6665495.950 10 0 59587 63000.00000 0 23364038.139 3392060.296 9697568.101 10 0 59587 63900.00000 0 21981493.100 3307475.058 12541584.611 10 0 59587 64800.00000 0 20265690.937 3376532.723 15142399.996 10 0 59587 65700.00000 0 18265359.822 3638792.285 17449579.460 10 0 59587 66600.00000 0 16038066.710 4123904.382 19418371.939 10 0 59587 67500.00000 0 13647951.983 4850149.133 21010573.691 10 0 59587 68400.00000 0 11163205.585 5823459.714 22195266.295 10 0 59587 69300.00000 0 8653388.971 7036973.479 22949415.220 10 0 59587 70200.00000 0 6186713.349 8471130.591 23258317.801 10 0 59587 71100.00000 0 3827386.395 10094317.445 23115892.109 10 0 59587 72000.00000 0 1633136.911 11864029.457 22524801.001 10 0 59587 72900.00000 0 -346980.526 13728506.291 21496408.590 10 0 59587 73800.00000 0 -2074410.323 15628772.780 20050569.281 10 0 59587 74700.00000 0 -3522474.533 17501001.620 18215252.618 10 0 59587 75600.00000 0 -4677248.418 19279100.203 16026010.180 10 0 59587 76500.00000 0 -5537896.658 20897414.113 13525293.808 10 0 59587 77400.00000 0 -6116456.405 22293434.335 10761637.527 10 0 59587 78300.00000 0 -6437076.634 23410394.574 7788718.291 10 0 59587 79200.00000 0 -6534746.192 24199649.157 4664313.409 10 0 59587 80100.00000 0 -6453564.644 24622730.753 1449174.900 10 0 59587 81000.00000 0 -6244629.688 24653000.377 -1794157.002 10 0 59587 81900.00000 0 -5963631.341 24276819.174 -5002577.489 10 0 59587 82800.00000 0 -5668255.778 23494191.685 -8113653.207 10 0 59587 83700.00000 0 -5415509.967 22318852.689 -11066845.578 10 0 59587 84600.00000 0 -5259081.673 20777793.444 -13804696.659 10 0 59587 85500.00000 0 -5246847.828 18910246.986 -16273953.439 10 0 59588 0.00000 0 -5418637.802 16766175.302 -18426607.907 10 0 59588 900.00000 0 -5804347.240 14404320.818 -20220833.345 10 0 59588 1800.00000 0 -6422482.609 11889907.104 -21621795.725 10 0 59588 2700.00000 0 -7279198.702 9292081.403 -22602328.519 10 0 59588 3600.00000 0 -8367869.850 6681208.797 -23143455.315 10 0 59588 4500.00000 0 -9669213.162 4126129.797 -23234751.938 10 0 59588 5400.00000 0 -11151958.774 1691495.491 -22874541.535 10 0 59588 6300.00000 0 -12774039.127 -564709.455 -22069919.562 10 0 59588 7200.00000 0 -14484247.470 -2593353.709 -20836608.787 10 0 59588 8100.00000 0 -16224296.318 -4355966.353 -19198647.591 10 0 59588 9000.00000 0 -17931189.825 -5826090.405 -17187917.917 10 0 59588 9900.00000 0 -19539810.947 -6990127.997 -14843522.214 10 0 59588 10800.00000 0 -20985615.307 -7847643.738 -12211021.488 10 0 59588 11700.00000 0 -22207319.221 -8411115.440 -9341549.178 10 0 59588 12600.00000 0 -23149469.441 -8705144.311 -6290818.044 10 0 59588 13500.00000 0 -23764787.156 -8765159.403 -3118039.242 10 0 59588 14400.00000 0 -24016188.169 -8635672.110 115225.504 10 0 59588 15300.00000 0 -23878394.603 -8368155.293 3346256.285 10 0 59588 16200.00000 0 -23339070.688 -8018637.246 6512388.871 10 0 59588 17100.00000 0 -22399434.936 -7645112.552 9552226.576 10 0 59588 18000.00000 0 -21074322.990 -7304879.352 12406826.636 10 0 59588 18900.00000 0 -19391698.263 -7051915.562 15020838.354 10 0 59588 19800.00000 0 -17391630.447 -6934404.694 17343571.338 10 0 59588 20700.00000 0 -15124784.076 -6992515.603 19329973.477 10 0 59588 21600.00000 0 -12650479.488 -7256529.719 20941500.329 10 0 59588 22500.00000 0 -10034406.097 -7745394.796 22146859.641 10 0 59588 23400.00000 0 -7346082.259 -8465766.396 22922617.059 10 0 59588 24300.00000 0 -4656166.212 -9411578.075 23253651.734 10 0 59588 25200.00000 0 -2033728.742 -10564159.287 23133453.165 10 0 59588 26100.00000 0 456400.162 -11892897.319 22564253.449 10 0 59588 27000.00000 0 2756101.453 -13356416.884 21556992.005 10 0 59588 27900.00000 0 4816152.164 -14904229.509 20131112.793 10 0 59588 28800.00000 0 6598035.248 -16478784.953 18314197.112 10 0 59588 29700.00000 0 8075299.283 -18017839.944 16141438.072 10 0 59588 30600.00000 0 9234411.708 -19457045.813 13654965.859 10 0 59588 31500.00000 0 10075070.162 -20732646.893 10903036.049 10 0 59588 32400.00000 0 10609959.220 -21784176.437 7939095.934 10 0 59588 33300.00000 0 10863963.101 -22557036.312 4820746.593 10 0 59588 34200.00000 0 10872867.928 -23004851.164 1608620.873 10 0 59588 35100.00000 0 10681608.898 -23091496.905 -1634800.633 10 0 59588 36000.00000 0 10342137.233 -22792716.856 -4846411.948 10 0 59588 36900.00000 0 9910998.056 -22097256.246 -7963717.704 10 0 59588 37800.00000 0 9446722.833 -21007466.178 -10926057.693 10 0 59588 38700.00000 0 9007147.945 -19539350.705 -13675795.166 10 0 59588 39600.00000 0 8646774.054 -17722054.406 -16159444.737 10 0 59588 40500.00000 0 8414279.082 -15596811.630 -18328717.293 10 0 59588 41400.00000 0 8350290.850 -13215401.314 -20141461.190 10 0 59588 42300.00000 0 8485514.145 -10638172.211 -21562481.262 10 0 59588 43200.00000 0 8839291.700 -7931721.190 -22564219.978 10 0 59588 44100.00000 0 9418659.946 -5166321.631 -23127287.979 10 0 59588 45000.00000 0 10217939.338 -2413209.163 -23240834.262 10 0 59588 45900.00000 0 11218876.386 258162.494 -22902749.600 10 0 59588 46800.00000 0 12391331.301 2782781.902 -22119699.905 10 0 59588 47700.00000 0 13694482.201 5102546.582 -20906989.527 10 0 59588 48600.00000 0 15078495.250 7168434.508 -19288257.609 10 0 59588 49500.00000 0 16486590.625 8942291.415 -17295013.707 10 0 59588 50400.00000 0 17857417.621 10398160.973 -14966021.858 10 0 59588 51300.00000 0 19127639.372 11523104.092 -12346545.123 10 0 59588 52200.00000 0 20234618.800 12317474.919 -9487465.166 10 0 59588 53100.00000 0 21119093.199 12794643.660 -6444293.971 10 0 59588 54000.00000 0 21727725.259 12980179.555 -3276096.781 10 0 59588 54900.00000 0 22015423.490 12910529.754 -44347.086 10 0 59588 55800.00000 0 21947334.608 12631250.871 3188264.068 10 0 59588 56700.00000 0 21500424.189 12194868.676 6359041.402 10 0 59588 57600.00000 0 20664579.076 11658456.756 9406497.880 10 0 59588 58500.00000 0 19443185.056 11081036.688 12271542.875 10 0 59588 59400.00000 0 17853155.214 10520909.470 14898623.231 10 0 59588 60300.00000 0 15924407.193 10033030.754 17236795.441 10 0 59588 61200.00000 0 13698810.563 9666540.319 19240708.563 10 0 59588 62100.00000 0 11228647.345 9462549.705 20871479.373 10 0 59588 63000.00000 0 8574648.805 9452280.990 22097443.406 10 0 59588 63900.00000 0 5803689.166 9655635.026 22894767.782 10 0 59588 64800.00000 0 2986230.865 10080249.563 23247914.409 10 0 59588 65700.00000 0 193626.167 10721087.327 23149944.767 10 0 59588 66600.00000 0 -2504613.912 11560572.142 22602660.307 10 0 59588 67500.00000 0 -5043471.203 12569268.398 21616575.394 10 0 59588 68400.00000 0 -7364883.322 13707076.559 20210722.697 10 0 59588 69300.00000 0 -9419916.294 14924895.760 18412293.941 10 0 59588 70200.00000 0 -11170557.047 16166684.852 16256121.975 10 0 59588 71100.00000 0 -12591051.495 17371836.260 13784013.172 10 0 59588 72000.00000 0 -13668732.514 18477763.461 11043942.175 10 0 59588 72900.00000 0 -14404303.444 19422593.433 8089123.893 10 0 59588 73800.00000 0 -14811565.444 20147850.474 4976980.295 10 0 59588 74700.00000 0 -14916600.478 20601017.641 1768022.060 10 0 59588 75600.00000 0 -14756444.830 20737866.824 -1475332.910 10 0 59588 76500.00000 0 -14377309.798 20524457.946 -4689980.541 10 0 59588 77400.00000 0 -13832425.535 19938721.611 -7813366.487 10 0 59588 78300.00000 0 -13179600.261 18971557.157 -10784711.853 10 0 59588 79200.00000 0 -12478599.150 17627398.636 -13546203.862 10 0 59588 80100.00000 0 -11788454.903 15924223.924 -16044127.300 10 0 59588 81000.00000 0 -11164824.773 13893005.897 -18229914.039 10 0 59588 81900.00000 0 -10657506.587 11576628.136 -20061089.835 10 0 59588 82800.00000 0 -10308219.303 9028310.481 -21502099.770 10 0 59588 83700.00000 0 -10148742.097 6309610.092 -22524996.570 10 0 59588 84600.00000 0 -10199490.482 3488081.427 -23109978.810 10 0 59588 85500.00000 0 -10468589.284 634692.707 -23245769.193 99